Location: Chiroubles
(46.1812°N, 4.6660°E)
Time: 11:52:52
(UTC+00:00)

N. Korean satellite - Pass Details

Date: 29 October 2020
Orbit: 453 x 503 km, 97.2° (Epoch: 03 December)

Event Time Altitude Azimuth Distance (km) Brightness Sun altitude
Rises 04:31:08 0° 25° (NNE) 2,480 10.5 -19.1°
Reaches altitude 10° 04:33:31 10° 42° (NE) 1,598 9.7 -18.6°
Maximum altitude 04:36:13 22° 94° (E) 1,056 9.2 -18.2°
Drops below altitude 10° 04:38:55 10° 147° (SSE) 1,588 9.6 -17.7°
Sets 04:41:16 0° 163° (SSE) 2,458 10.4 -17.3°
